| time (UTC) | temp F | wind direction | speed MPH | gust MPH | rain 1hr in | rain 24hr in | rain mn in | humidity % | barometer mb |
| 20260509221803 | 78 | 171 | 0.0 | 2.0 | 0.00 | 0.51 | 0.00 | 48 | 1005.6 |
| 20260509221302 | 79 | 173 | 0.0 | 0.0 | 0.00 | 0.51 | 0.00 | 48 | 1005.6 |
| 20260509220803 | 79 | 171 | 0.0 | 0.0 | 0.00 | 0.51 | 0.00 | 47 | 1005.6 |
| 20260509220302 | 79 | 173 | 0.0 | 0.0 | 0.00 | 0.51 | 0.00 | 43 | 1005.7 |
| 20260509214802 | 79 | 229 | 0.0 | 0.0 | 0.00 | 0.51 | 0.00 | 46 | 1005.8 |
| 20260509213803 | 79 | 231 | 0.0 | 0.0 | 0.00 | 0.52 | 0.00 | 48 | 1005.8 |
| 20260509211803 | 79 | 207 | 0.0 | 0.0 | 0.00 | 0.52 | 0.00 | 44 | 1006.0 |
| 20260509211303 | 79 | 203 | 0.0 | 0.0 | 0.00 | 0.52 | 0.00 | 46 | 1006.1 |
| 20260509210803 | 79 | 199 | 0.0 | 0.0 | 0.00 | 0.52 | 0.00 | 45 | 1006.1 |
| 20260509210303 | 79 | 225 | 0.0 | 0.0 | 0.00 | 0.52 | 0.00 | 49 | 1006.1 |
| 20260509204802 | 79 | 232 | 0.0 | 0.0 | 0.00 | 0.52 | 0.00 | 45 | 1006.3 |
| 20260509204302 | 79 | 232 | 0.0 | 0.0 | 0.00 | 0.52 | 0.00 | 43 | 1006.3 |
| 20260509203802 | 79 | 267 | 0.0 | 0.0 | 0.00 | 0.52 | 0.00 | 45 | 1006.3 |
| 20260509201802 | 79 | 214 | 0.0 | 0.0 | 0.00 | 0.52 | 0.00 | 43 | 1006.4 |
| 20260509201302 | 79 | 311 | 0.0 | 2.0 | 0.00 | 0.52 | 0.00 | 47 | 1006.5 |
| 20260509200803 | 79 | 278 | 0.0 | 0.0 | 0.00 | 0.52 | 0.00 | 46 | 1006.5 |
| 20260509200302 | 79 | 207 | 0.0 | 0.0 | 0.00 | 0.52 | 0.00 | 42 | 1006.4 |
| 20260509194803 | 79 | 246 | 0.0 | 3.0 | 0.00 | 0.52 | 0.00 | 46 | 1006.6 |
| 20260509194302 | 79 | 111 | 0.0 | 0.0 | 0.00 | 0.52 | 0.00 | 47 | 1006.5 |
| 20260509193803 | 79 | 107 | 0.0 | 1.0 | 0.00 | 0.52 | 0.00 | 42 | 1006.6 |
| 20260509193302 | 79 | 189 | 0.0 | 0.0 | 0.00 | 0.52 | 0.00 | 47 | 1006.7 |
| 20260509191803 | 79 | 211 | 0.0 | 0.0 | 0.00 | 0.52 | 0.00 | 47 | 1006.7 |
| 20260509190803 | 79 | 323 | 0.0 | 0.0 | 0.00 | 0.52 | 0.00 | 48 | 1006.8 |
| 20260509190303 | 78 | 311 | 0.0 | 0.0 | 0.00 | 0.52 | 0.00 | 47 | 1006.8 |
| 20260509184303 | 78 | 181 | 0.0 | 0.0 | 0.00 | 0.52 | 0.00 | 51 | 1007.0 |
| 20260509183803 | 78 | 219 | 0.0 | 2.0 | 0.00 | 0.52 | 0.00 | 48 | 1007.1 |
| 20260509183303 | 78 | 252 | 0.0 | 2.0 | 0.00 | 0.52 | 0.00 | 53 | 1007.1 |
| 20260509181803 | 77 | 256 | 0.0 | 1.0 | 0.00 | 0.52 | 0.00 | 52 | 1007.2 |
| 20260509181303 | 78 | 275 | 0.0 | 0.0 | 0.00 | 0.52 | 0.00 | 54 | 1007.3 |
| 20260509180803 | 78 | 203 | 0.0 | 0.0 | 0.00 | 0.52 | 0.00 | 54 | 1007.3 |
| 20260509180302 | 77 | 214 | 0.0 | 3.0 | 0.00 | 0.52 | 0.00 | 54 | 1007.3 |
| 20260509174803 | 77 | 206 | 0.0 | 0.0 | 0.00 | 0.52 | 0.00 | 59 | 1007.4 |
| 20260509174302 | 77 | 209 | 0.0 | 0.0 | 0.00 | 0.52 | 0.00 | 58 | 1007.5 |
| 20260509173802 | 76 | 220 | 0.0 | 0.0 | 0.00 | 0.52 | 0.00 | 60 | 1007.5 |
| 20260509173303 | 76 | 209 | 0.0 | 1.0 | 0.00 | 0.52 | 0.00 | 56 | 1007.7 |
| 20260509171802 | 76 | 240 | 0.0 | 0.0 | 0.00 | 0.52 | 0.00 | 60 | 1007.9 |
| 20260509171302 | 75 | 243 | 0.0 | 0.0 | 0.00 | 0.52 | 0.00 | 59 | 1007.8 |
| 20260509170803 | 75 | 221 | 0.0 | 1.0 | 0.00 | 0.52 | 0.00 | 63 | 1007.9 |
| 20260509170303 | 75 | 223 | 0.0 | 3.0 | 0.00 | 0.52 | 0.00 | 62 | 1007.9 |
| 20260509163803 | 73 | 217 | 0.0 | 0.0 | 0.00 | 0.52 | 0.00 | 68 | 1007.8 |
| 20260509163303 | 72 | 202 | 0.0 | 2.0 | 0.00 | 0.52 | 0.00 | 70 | 1007.8 |
| 20260509161803 | 71 | 278 | 0.0 | 0.0 | 0.00 | 0.52 | 0.00 | 73 | 1007.7 |
| 20260509161303 | 70 | 199 | 0.0 | 2.0 | 0.00 | 0.52 | 0.00 | 72 | 1007.8 |
| 20260509160803 | 69 | 202 | 0.0 | 2.0 | 0.00 | 0.52 | 0.00 | 75 | 1007.6 |
| 20260509160303 | 69 | 219 | 0.0 | 0.0 | 0.00 | 0.52 | 0.00 | 79 | 1007.7 |
| 20260509154803 | 67 | 212 | 0.0 | 0.0 | 0.00 | 0.52 | 0.00 | 82 | 1007.7 |
| 20260509153802 | 66 | 218 | 0.0 | 1.0 | 0.00 | 0.52 | 0.00 | 82 | 1007.7 |
| 20260509153302 | 65 | 174 | 0.0 | 2.0 | 0.00 | 0.52 | 0.00 | 84 | 1007.6 |
| 20260509151803 | 64 | 166 | 0.0 | 2.0 | 0.00 | 0.52 | 0.00 | 86 | 1007.7 |
| 20260509150803 | 63 | 205 | 0.0 | 0.0 | 0.00 | 0.52 | 0.00 | 88 | 1007.7 |
| 20260509150303 | 63 | 205 | 0.0 | 1.0 | 0.00 | 0.52 | 0.00 | 89 | 1007.7 |
| 20260509144303 | 61 | 134 | 0.0 | 0.0 | 0.00 | 0.52 | 0.00 | 92 | 1007.8 |
| 20260509143303 | 61 | 203 | 0.0 | 0.0 | 0.00 | 0.52 | 0.00 | 93 | 1007.6 |
| 20260509141803 | 59 | 184 | 0.0 | 0.0 | 0.00 | 0.52 | 0.00 | 95 | 1007.6 |
| 20260509141303 | 59 | 184 | 0.0 | 0.0 | 0.00 | 0.52 | 0.00 | 95 | 1007.6 |
| 20260509140303 | 59 | 159 | 0.0 | 0.0 | 0.00 | 0.52 | 0.00 | 95 | 1007.5 |
| 20260509134803 | 58 | 159 | 0.0 | 0.0 | 0.00 | 0.52 | 0.00 | 96 | 1007.6 |
| 20260509134303 | 58 | 159 | 0.0 | 0.0 | 0.00 | 0.52 | 0.00 | 95 | 1007.6 |
| 20260509133803 | 58 | 159 | 0.0 | 0.0 | 0.00 | 0.52 | 0.00 | 95 | 1007.4 |
| 20260509133303 | 58 | 159 | 0.0 | 0.0 | 0.00 | 0.52 | 0.00 | 95 | 1007.5 |
| 20260509131803 | 57 | 159 | 0.0 | 0.0 | 0.00 | 0.52 | 0.00 | 95 | 1007.4 |
| 20260509130303 | 57 | 159 | 0.0 | 0.0 | 0.00 | 0.52 | 0.00 | 95 | 1007.4 |
| 20260509124803 | 56 | 159 | 0.0 | 0.0 | 0.00 | 0.52 | 0.00 | 95 | 1007.1 |
| 20260509123803 | 56 | 159 | 0.0 | 0.0 | 0.00 | 0.52 | 0.00 | 95 | 1007.0 |
| 20260509123303 | 56 | 159 | 0.0 | 0.0 | 0.00 | 0.52 | 0.00 | 95 | 1007.0 |
| 20260509121302 | 56 | 159 | 0.0 | 0.0 | 0.00 | 0.52 | 0.00 | 95 | 1007.2 |
| 20260509120303 | 56 | 159 | 0.0 | 0.0 | 0.00 | 0.52 | 0.00 | 95 | 1007.0 |
| 20260509114302 | 55 | 159 | 0.0 | 0.0 | 0.00 | 0.52 | 0.00 | 95 | 1007.0 |
| 20260509113803 | 55 | 159 | 0.0 | 0.0 | 0.00 | 0.52 | 0.00 | 95 | 1007.0 |
| 20260509113303 | 55 | 159 | 0.0 | 0.0 | 0.00 | 0.52 | 0.00 | 95 | 1007.0 |
| 20260509111803 | 55 | 159 | 0.0 | 0.0 | 0.00 | 0.52 | 0.00 | 95 | 1007.0 |
| 20260509111303 | 55 | 159 | 0.0 | 0.0 | 0.00 | 0.52 | 0.00 | 95 | 1007.0 |
| 20260509110303 | 55 | 159 | 0.0 | 0.0 | 0.00 | 0.52 | 0.00 | 95 | 1006.9 |
| 20260509104803 | 55 | 158 | 0.0 | 0.0 | 0.00 | 0.52 | 0.00 | 95 | 1006.8 |
| 20260509103803 | 55 | 158 | 0.0 | 0.0 | 0.00 | 0.52 | 0.00 | 95 | 1006.8 |
| 20260509103303 | 55 | 158 | 0.0 | 0.0 | 0.00 | 0.52 | 0.00 | 95 | 1006.8 |
| 20260509101803 | 55 | 158 | 0.0 | 0.0 | 0.00 | 0.52 | 0.00 | 95 | 1006.8 |
| 20260509101303 | 55 | 158 | 0.0 | 0.0 | 0.00 | 0.52 | 0.00 | 95 | 1006.8 |
| 20260509100803 | 55 | 158 | 0.0 | 0.0 | 0.00 | 0.52 | 0.00 | 95 | 1006.8 |
| 20260509100303 | 55 | 158 | 0.0 | 0.0 | 0.00 | 0.52 | 0.00 | 95 | 1006.8 |
| 20260509094803 | 55 | 158 | 0.0 | 0.0 | 0.00 | 0.52 | 0.00 | 95 | 1006.8 |
| 20260509094304 | 55 | 124 | 0.0 | 0.0 | 0.00 | 0.52 | 0.00 | 95 | 1006.7 |
| 20260509093803 | 55 | 124 | 0.0 | 0.0 | 0.00 | 0.52 | 0.00 | 95 | 1006.8 |
| 20260509093303 | 55 | 124 | 0.0 | 0.0 | 0.00 | 0.52 | 0.00 | 95 | 1006.8 |
| 20260509091802 | 55 | 124 | 0.0 | 0.0 | 0.00 | 0.52 | 0.00 | 95 | 1006.8 |
| 20260509091303 | 55 | 124 | 0.0 | 0.0 | 0.00 | 0.52 | 0.00 | 95 | 1006.7 |
| 20260509090803 | 55 | 124 | 0.0 | 0.0 | 0.00 | 0.52 | 0.00 | 95 | 1006.7 |
| 20260509090303 | 55 | 124 | 0.0 | 0.0 | 0.00 | 0.52 | 0.00 | 95 | 1006.6 |
| 20260509084803 | 55 | 139 | 0.0 | 0.0 | 0.00 | 0.52 | 0.00 | 95 | 1006.4 |
| 20260509084303 | 55 | 139 | 0.0 | 0.0 | 0.00 | 0.52 | 0.00 | 95 | 1006.5 |
| 20260509083802 | 55 | 139 | 0.0 | 0.0 | 0.00 | 0.52 | 0.00 | 95 | 1006.4 |
| 20260509083303 | 55 | 139 | 0.0 | 0.0 | 0.00 | 0.52 | 0.00 | 95 | 1006.3 |
| 20260509081803 | 55 | 139 | 0.0 | 0.0 | 0.00 | 0.52 | 0.00 | 95 | 1006.2 |
| 20260509081302 | 55 | 139 | 0.0 | 0.0 | 0.00 | 0.52 | 0.00 | 95 | 1006.1 |
| 20260509080803 | 55 | 139 | 0.0 | 0.0 | 0.00 | 0.52 | 0.00 | 95 | 1006.1 |
| 20260509074303 | 55 | 139 | 0.0 | 0.0 | 0.00 | 0.52 | 0.00 | 95 | 1006.2 |
| 20260509073803 | 55 | 139 | 0.0 | 0.0 | 0.00 | 0.52 | 0.00 | 95 | 1006.3 |
| 20260509073303 | 55 | 139 | 0.0 | 0.0 | 0.00 | 0.52 | 0.00 | 95 | 1006.3 |
| 20260509071803 | 55 | 139 | 0.0 | 0.0 | 0.00 | 0.52 | 0.00 | 95 | 1006.4 |
| 20260509070803 | 54 | 139 | 0.0 | 0.0 | 0.00 | 0.52 | 0.00 | 95 | 1006.4 |
| 20260509070303 | 54 | 139 | 0.0 | 0.0 | 0.00 | 0.52 | 0.00 | 95 | 1006.3 |
| 20260509064803 | 54 | 139 | 0.0 | 0.0 | 0.00 | 0.52 | 0.00 | 95 | 1006.3 |
| 20260509064303 | 54 | 139 | 0.0 | 0.0 | 0.00 | 0.52 | 0.00 | 94 | 1006.3 |
| 20260509063303 | 54 | 139 | 0.0 | 0.0 | 0.00 | 0.52 | 0.00 | 94 | 1006.4 |
| 20260509061804 | 54 | 139 | 0.0 | 0.0 | 0.00 | 0.52 | 0.00 | 94 | 1006.5 |
| 20260509061303 | 54 | 139 | 0.0 | 0.0 | 0.00 | 0.52 | 0.00 | 94 | 1006.6 |
| 20260509060803 | 54 | 139 | 0.0 | 0.0 | 0.00 | 0.52 | 0.00 | 94 | 1006.6 |
| 20260509060303 | 54 | 139 | 0.0 | 0.0 | 0.00 | 0.52 | 0.00 | 94 | 1006.6 |
| 20260509054803 | 54 | 139 | 0.0 | 0.0 | 0.00 | 0.52 | 0.00 | 94 | 1006.6 |
| 20260509054303 | 54 | 139 | 0.0 | 0.0 | 0.00 | 0.52 | 0.00 | 94 | 1006.6 |
| 20260509053803 | 55 | 139 | 0.0 | 0.0 | 0.00 | 0.52 | 0.00 | 94 | 1006.6 |
| 20260509053303 | 55 | 139 | 0.0 | 0.0 | 0.00 | 0.52 | 0.00 | 94 | 1006.7 |
| 20260509051804 | 55 | 139 | 0.0 | 0.0 | 0.00 | 0.52 | 0.00 | 94 | 1006.7 |
| 20260509051303 | 55 | 139 | 0.0 | 0.0 | 0.00 | 0.52 | 0.00 | 94 | 1006.8 |
| 20260509050803 | 55 | 139 | 0.0 | 0.0 | 0.00 | 0.52 | 0.00 | 94 | 1006.7 |
| 20260509050303 | 55 | 139 | 0.0 | 0.0 | 0.00 | 0.52 | 0.00 | 94 | 1006.8 |
| 20260509044803 | 55 | 139 | 0.0 | 0.0 | 0.00 | 0.52 | 0.52 | 94 | 1006.8 |
| 20260509044303 | 55 | 139 | 0.0 | 0.0 | 0.00 | 0.52 | 0.52 | 94 | 1006.8 |
| 20260509043803 | 55 | 139 | 0.0 | 0.0 | 0.00 | 0.52 | 0.52 | 94 | 1006.8 |
| 20260509043303 | 55 | 139 | 0.0 | 0.0 | 0.00 | 0.52 | 0.52 | 94 | 1006.5 |
| 20260509041803 | 56 | 139 | 0.0 | 0.0 | 0.00 | 0.52 | 0.52 | 94 | 1006.5 |
| 20260509041303 | 56 | 139 | 0.0 | 0.0 | 0.00 | 0.52 | 0.52 | 94 | 1006.6 |
| 20260509040804 | 56 | 139 | 0.0 | 0.0 | 0.00 | 0.52 | 0.52 | 94 | 1006.6 |
| 20260509040303 | 56 | 139 | 0.0 | 0.0 | 0.00 | 0.52 | 0.52 | 94 | 1006.7 |
| 20260509034803 | 56 | 139 | 0.0 | 0.0 | 0.00 | 0.52 | 0.52 | 94 | 1006.8 |
| 20260509034303 | 56 | 139 | 0.0 | 0.0 | 0.01 | 0.52 | 0.52 | 94 | 1006.9 |
| 20260509033803 | 56 | 139 | 0.0 | 0.0 | 0.01 | 0.52 | 0.52 | 94 | 1006.9 |
| 20260509033303 | 56 | 139 | 0.0 | 0.0 | 0.01 | 0.52 | 0.52 | 94 | 1006.8 |
| 20260509031803 | 57 | 139 | 0.0 | 0.0 | 0.01 | 0.52 | 0.52 | 94 | 1006.7 |
| 20260509031303 | 57 | 139 | 0.0 | 0.0 | 0.01 | 0.52 | 0.52 | 94 | 1006.6 |
| 20260509030803 | 57 | 139 | 0.0 | 0.0 | 0.01 | 0.52 | 0.52 | 94 | 1006.6 |
| 20260509030303 | 57 | 139 | 0.0 | 0.0 | 0.01 | 0.52 | 0.52 | 94 | 1006.7 |
| 20260509024803 | 57 | 139 | 0.0 | 0.0 | 0.03 | 0.52 | 0.52 | 94 | 1006.8 |
| 20260509024303 | 57 | 139 | 0.0 | 0.0 | 0.04 | 0.51 | 0.51 | 94 | 1006.9 |
| 20260509023803 | 57 | 139 | 0.0 | 0.0 | 0.06 | 0.51 | 0.51 | 94 | 1006.9 |
| 20260509023303 | 57 | 139 | 0.0 | 0.0 | 0.08 | 0.51 | 0.51 | 93 | 1006.9 |
| 20260509021803 | 57 | 140 | 0.0 | 0.0 | 0.14 | 0.51 | 0.51 | 93 | 1007.0 |
| 20260509021303 | 57 | 140 | 0.0 | 0.0 | 0.16 | 0.51 | 0.51 | 93 | 1006.8 |
| 20260509020804 | 57 | 140 | 0.0 | 0.0 | 0.17 | 0.51 | 0.51 | 93 | 1006.9 |
| 20260509020303 | 57 | 140 | 0.0 | 0.0 | 0.19 | 0.51 | 0.51 | 93 | 1007.0 |
| 20260509013803 | 57 | 140 | 0.0 | 0.0 | 0.23 | 0.45 | 0.45 | 93 | 1007.2 |
| 20260509013304 | 57 | 140 | 0.0 | 0.0 | 0.24 | 0.43 | 0.43 | 93 | 1007.3 |
| 20260509011804 | 57 | 140 | 0.0 | 0.0 | 0.30 | 0.37 | 0.37 | 92 | 1007.0 |
| 20260509010803 | 57 | 140 | 0.0 | 0.0 | 0.31 | 0.34 | 0.34 | 92 | 1006.9 |
| 20260509010303 | 58 | 202 | 0.0 | 0.0 | 0.29 | 0.32 | 0.32 | 91 | 1007.3 |
| 20260509004803 | 59 | 277 | 0.0 | 0.0 | 0.23 | 0.26 | 0.26 | 92 | 1007.5 |
| 20260509004303 | 59 | 277 | 0.0 | 0.0 | 0.22 | 0.25 | 0.25 | 92 | 1007.7 |
| 20260509003803 | 59 | 277 | 0.0 | 0.0 | 0.19 | 0.22 | 0.22 | 92 | 1007.6 |
| 20260509001803 | 60 | 341 | 0.0 | 0.0 | 0.04 | 0.07 | 0.07 | 92 | 1007.4 |
| 20260509001303 | 60 | 342 | 0.0 | 0.0 | 0.01 | 0.04 | 0.04 | 92 | 1006.9 |
| 20260509000803 | 60 | 18 | 0.0 | 0.0 | 0.00 | 0.03 | 0.03 | 92 | 1006.5 |
| 20260509000303 | 60 | 20 | 0.0 | 0.0 | 0.00 | 0.03 | 0.03 | 91 | 1006.2 |
| 20260508233803 | 60 | 44 | 0.0 | 0.0 | 0.02 | 0.03 | 0.03 | 91 | 1006.0 |
| 20260508233304 | 60 | 5 | 0.0 | 1.0 | 0.02 | 0.03 | 0.03 | 90 | 1006.1 |
| 20260508231804 | 61 | 343 | 0.0 | 2.0 | 0.02 | 0.03 | 0.03 | 91 | 1006.4 |
| 20260508231304 | 61 | 6 | 0.0 | 3.0 | 0.02 | 0.03 | 0.03 | 91 | 1006.4 |
| 20260508230803 | 61 | 25 | 0.0 | 0.0 | 0.02 | 0.03 | 0.03 | 90 | 1006.5 |
| 20260508230303 | 61 | 352 | 0.0 | 0.0 | 0.02 | 0.03 | 0.03 | 90 | 1006.5 |
| 20260508224304 | 62 | 355 | 0.0 | 0.0 | 0.00 | 0.01 | 0.01 | 89 | 1007.0 |
| 20260508223803 | 62 | 350 | 0.0 | 0.0 | 0.01 | 0.01 | 0.01 | 89 | 1007.0 |
| 20260508223303 | 62 | 5 | 0.0 | 0.0 | 0.01 | 0.01 | 0.01 | 89 | 1007.0 |